KATT10 KPBI-KOPF

Flight info

Callsign KATT10
Flight time N/A
Altitude 9000
Route VFR
Aircraft TEX2/L-V/N

Departure

Time 2026-04-27 21:22
Airport Palm Beach International Airport (KPBI)

Arrival

Time N/A
Airport Miami-Opa Locka Executive Airport (KOPF)
Time Latitude Longitude Altitude Speed Heading
2026-04-27 21:14 26.67951 -80.09995 23 ft 0 kts 88°
2026-04-27 21:20 26.68010 -80.10018 24 ft 13 kts 277°
2026-04-27 21:20 26.68025 -80.10131 24 ft 13 kts 314°
2026-04-27 21:20 26.68060 -80.10177 24 ft 8 kts 268°
2026-04-27 21:20 26.68060 -80.10236 25 ft 7 kts 273°
2026-04-27 21:21 26.68062 -80.10288 26 ft 6 kts 271°
2026-04-27 21:21 26.68064 -80.10332 26 ft 6 kts 273°
2026-04-27 21:21 26.68067 -80.10382 26 ft 8 kts 274°
2026-04-27 21:21 26.68075 -80.10546 23 ft 9 kts 268°
2026-04-27 21:22 26.68090 -80.10617 22 ft 7 kts 341°
2026-04-27 21:22 26.68117 -80.10589 22 ft 9 kts 90°
2026-04-27 21:22 26.68103 -80.10247 32 ft 94 kts 98°
2026-04-27 21:22 26.67933 -80.09361 678 ft 127 kts 105°
2026-04-27 21:23 26.67641 -80.08297 1285 ft 162 kts 92°
2026-04-27 21:23 26.67809 -80.06925 1370 ft 204 kts 94°
2026-04-27 21:23 26.68014 -80.05490 2090 ft 176 kts 64°
2026-04-27 21:23 26.68835 -80.04341 2150 ft 203 kts 43°
2026-04-27 21:24 26.70128 -80.03781 2710 ft 200 kts 11°
2026-04-27 21:24 26.71607 -80.03926 2605 ft 228 kts
2026-04-27 21:24 26.73235 -80.04102 2397 ft 242 kts
2026-04-27 21:24 26.74852 -80.03637 2620 ft 232 kts 23°
2026-04-27 21:25 26.76365 -80.03276 3088 ft 227 kts
2026-04-27 21:25 26.78038 -80.03452 2621 ft 254 kts
2026-04-27 21:25 26.79603 -80.03712 2183 ft 206 kts 287°
2026-04-27 21:25 26.81017 -80.03383 1065 ft 237 kts
2026-04-27 21:26 26.82577 -80.03672 1630 ft 228 kts 354°
2026-04-27 21:26 26.84154 -80.03938 1783 ft 229 kts 360°
2026-04-27 21:26 26.85712 -80.04285 2020 ft 230 kts 356°
2026-04-27 21:26 26.87287 -80.04524 2232 ft 230 kts
2026-04-27 21:27 26.88833 -80.03990 2130 ft 237 kts 31°
2026-04-27 21:27 26.90161 -80.02985 2239 ft 229 kts 41°
2026-04-27 21:27 26.91233 -80.01674 2415 ft 225 kts 54°
2026-04-27 21:27 26.92228 -80.01135 3967 ft 163 kts 359°
2026-04-27 21:28 26.93545 -80.01279 3791 ft 200 kts
2026-04-27 21:28 26.94680 -80.01262 3753 ft 109 kts 247°
2026-04-27 21:28 26.93468 -80.00970 1853 ft 203 kts 173°
2026-04-27 21:28 26.92172 -80.00807 1494 ft 174 kts 174°
2026-04-27 21:29 26.91045 -80.00809 1362 ft 146 kts 189°
2026-04-27 21:29 26.89906 -80.00715 1313 ft 197 kts 171°
2026-04-27 21:29 26.88465 -80.00878 1716 ft 200 kts 180°
2026-04-27 21:29 26.87033 -80.00581 1805 ft 229 kts 160°
2026-04-27 21:30 26.85550 -79.99885 1525 ft 223 kts 159°
2026-04-27 21:30 26.84069 -79.99630 1283 ft 208 kts 192°
2026-04-27 21:30 26.82834 -79.99569 1534 ft 174 kts 165°
2026-04-27 21:30 26.81609 -79.99384 1456 ft 152 kts 170°
2026-04-27 21:31 26.80729 -79.98990 1322 ft 164 kts 172°
2026-04-27 21:31 26.79486 -79.99481 1093 ft 213 kts 220°
2026-04-27 21:31 26.78833 -80.00907 980 ft 203 kts 271°
2026-04-27 21:31 26.78823 -80.02430 1083 ft 197 kts 280°
2026-04-27 21:32 26.78926 -80.04039 1054 ft 200 kts 314°
2026-04-27 21:32 26.79992 -80.04274 897 ft 171 kts 43°
2026-04-27 21:32 26.80166 -80.03079 752 ft 179 kts 141°
2026-04-27 21:32 26.78959 -80.02662 786 ft 184 kts 176°
2026-04-27 21:33 26.77756 -80.02438 1342 ft 178 kts 171°
2026-04-27 21:33 26.76595 -80.02397 2344 ft 166 kts 173°
2026-04-27 21:33 26.75316 -80.02258 2280 ft 190 kts 168°
2026-04-27 21:33 26.74003 -80.01591 2136 ft 235 kts 157°
2026-04-27 21:34 26.72434 -80.01235 2064 ft 199 kts 172°
2026-04-27 21:34 26.71098 -80.01012 1994 ft 184 kts 170°
2026-04-27 21:34 26.69826 -80.00581 1578 ft 181 kts 199°
2026-04-27 21:34 26.68769 -80.00657 1684 ft 175 kts 189°
2026-04-27 21:35 26.67459 -80.00549 1918 ft 212 kts 174°
2026-04-27 21:35 26.65880 -80.00466 1953 ft 241 kts 192°
2026-04-27 21:35 26.64368 -80.00698 2009 ft 196 kts 198°
2026-04-27 21:35 26.63005 -80.01096 2133 ft 202 kts 133°
2026-04-27 21:36 26.61752 -80.01166 1269 ft 239 kts 221°
2026-04-27 21:36 26.60387 -80.01916 1284 ft 220 kts 194°
2026-04-27 21:36 26.59078 -80.01997 1815 ft 168 kts 173°
2026-04-27 21:36 26.57936 -80.01718 1724 ft 170 kts 171°
2026-04-27 21:37 26.56674 -80.02124 1927 ft 189 kts 197°
2026-04-27 21:37 26.55275 -80.02428 2167 ft 216 kts 194°
2026-04-27 21:37 26.53839 -80.02219 2179 ft 227 kts 173°
2026-04-27 21:37 26.52380 -80.02564 2272 ft 216 kts 170°
2026-04-27 21:38 26.51045 -80.03015 1693 ft 184 kts 226°
2026-04-27 21:38 26.50036 -80.03888 1308 ft 158 kts 200°
2026-04-27 21:38 26.48979 -80.03820 1461 ft 189 kts 176°
2026-04-27 21:38 26.47586 -80.03837 1961 ft 208 kts 184°
2026-04-27 21:39 26.46065 -80.04151 2080 ft 229 kts 203°
2026-04-27 21:39 26.44530 -80.04178 2367 ft 210 kts 199°
2026-04-27 21:39 26.43567 -80.04511 3780 ft 150 kts 185°
2026-04-27 21:39 26.41908 -80.04990 3034 ft 256 kts 189°
2026-04-27 21:40 26.40410 -80.04551 2218 ft 221 kts 164°
2026-04-27 21:40 26.38989 -80.04831 1895 ft 189 kts 195°
2026-04-27 21:40 26.37698 -80.05000 1741 ft 204 kts 188°
2026-04-27 21:40 26.36230 -80.05247 1826 ft 211 kts 192°
2026-04-27 21:41 26.34828 -80.05454 1834 ft 196 kts 189°
2026-04-27 21:41 26.33488 -80.05647 1809 ft 194 kts 190°
2026-04-27 21:41 26.32121 -80.05922 1906 ft 201 kts 193°
2026-04-27 21:41 26.30743 -80.06128 1879 ft 196 kts 183°
2026-04-27 21:42 26.29417 -80.06400 1752 ft 192 kts 191°
2026-04-27 21:42 26.28114 -80.06529 1827 ft 186 kts 188°
2026-04-27 21:42 26.26792 -80.06765 1819 ft 196 kts 193°
2026-04-27 21:42 26.25402 -80.07000 1803 ft 197 kts 198°
2026-04-27 21:43 26.24113 -80.07360 2029 ft 202 kts 197°
2026-04-27 21:43 26.22678 -80.07396 1795 ft 217 kts 179°
2026-04-27 21:43 26.21264 -80.07654 1923 ft 210 kts 203°